Regional Weather Roundup
Issued by NWS Grand Forks, ND

Home | Current Version | Previous Version | Text Only | Print | Product List | Glossary On
Versions: 1 2 3 4 5 6 7 8 9 10 11 12 13 14 15 16 17 18 19 20 21 22 23 24 25 26 27 28 29 30 31 32 33 34 35 36 37 38 39 40 41 42 43 44 45 46 47 48 49 50
000
ASUS43 KFGF 250031
RWRFGF
PRAIRIE TO PINES  WEATHER ROUNDUP
NATIONAL WEATHER SERVICE EASTERN NORTH DAKOTA/GRAND FORKS ND
700 PM CDT WED MAY 24 2017

 **SATELLITE DATA USED TO AUGMENT SKY COVER AT AUTOMATED STATIONS**
 *****  WEATHER ACROSS EASTERN NORTH DAKOTA  *****

CITY           SKY/WX    TMP DP  RH WIND       PRES   REMARKS
GRAND FORKS    FAIR      67  41  38 SE24      29.60S
6HR MIN TEMP:  66; 6HR MAX TEMP:  71;

GRAND FRKS AFB FAIR      62  41  45 S17       29.60S
DEVILS LAKE    FAIR      63  43  48 SE22G32   29.53F
6HR MIN TEMP:  60; 6HR MAX TEMP:  65;

FARGO          CLOUDY    65  42  43 S15G23    29.62F
WAHPETON ARPT  MOCLDY    59  39  47 S14       29.65F
$$

 ***** WEATHER ACROSS CENTRAL AND WESTERN NORTH DAKOTA  *****

CITY           SKY/WX    TMP DP  RH WIND       PRES   REMARKS
BISMARCK       FAIR      70  40  33 S23G33    29.44F
6HR MIN TEMP:  65; 6HR MAX TEMP:  72;

MINOT          FAIR      70  35  27 SE20G37   29.36F
6HR MIN TEMP:  68; 6HR MAX TEMP:  74;

JAMESTOWN      FAIR      64  43  46 SE21G29   29.54F
6HR MIN TEMP:  59; 6HR MAX TEMP:  67;

MINOT AFB      FAIR      70  36  29 S30G38    29.35F
GARRISON         N/A     67  40  37 S23G38    29.37F
WILLISTON      CLOUDY    64  57  78 W12       29.31R
6HR MIN TEMP:  63; 6HR MAX TEMP:  80; 6HR PCP: TRACE;

DICKINSON      FAIR      68  35  29 SE31G37   29.31F
6HR MIN TEMP:  65; 6HR MAX TEMP:  72;

HETTINGER      FAIR      72  38  29 SE24G35   29.36F
6HR MIN TEMP:  66; 6HR MAX TEMP:  73;

$$

 *****  OTHER AIRPORT OBSERVATIONS IN OUR AREA  *****

CITY           SKY/WX    TMP DP  RH WIND       PRES   REMARKS
WALHALLA       NOT AVBL
GRAFTON AIRPOR FAIR      64  41  42 S22G30    29.60F
VALLEY CITY AR FAIR      61  43  51 SE17G26   29.60F
CANDO          NOT AVBL
CAVALIER APRT  FAIR      66  39  37 S22G29    29.55F
GWINNER        CLEAR     63  45  51 MISG      29.60F
SHEYENNE NWR     N/A     63  45  51 SE16      29.95S
ROLLA          FAIR      63  41  45 S31G37    29.49S
 ***** THE ABOVE OBSERVATIONS ARE NON NWS ARE NOT QUALITY
       CONTROLLED AND MAY MIS-REPORT RAIN FOR SNOW...
$$

  *****  WEATHER ACROSS NORTHERN MINNESOTA  *****

CITY           SKY/WX    TMP DP  RH WIND       PRES   REMARKS
FLAG ISLAND    FAIR      64  36  34 CALM      29.65F
WARROAD        FAIR      66  43  42 S16       29.65F
ROSEAU         FAIR      66  41  39 S15G21    29.64F
HALLOCK        FAIR      68  36  30 SE20G25   29.59S
THF RVR FALLS  FAIR      64  39  39 SE23      29.65F
6HR MIN TEMP:  62; 6HR MAX TEMP:  66;

BAUDETTE       FAIR      66  36  32 S13       29.67S
6HR MIN TEMP:  63; 6HR MAX TEMP:  69;

WASKISH        PTSUNNY   63  43  48 SE9G17    29.69S
CROOKSTON      PTSUNNY   64  41  42 S20       29.63S
STEPHEN NDAWN    N/A     66  37  34 S20         N/A
GREENBUSH NDAW   N/A     64  39  39 S17         N/A
$$
  *****  WEATHER ACROSS CENTRAL AND WEST MINNESOTA  *****

CITY           SKY/WX    TMP DP  RH WIND       PRES   REMARKS
FOSSTON        FAIR      64  41  42 SE9       29.67S
BEMIDJI        PTSUNNY   59  39  48 SE13G18   29.69S
PARK RAPIDS    LGT RAIN  61  39  44 SE10      29.68F
6HR MIN TEMP:  61; 6HR MAX TEMP:  64; 6HR PCP: TRACE;

ELBOW LAKE     CLOUDY    57  44  61 E13       29.68F
6HR MIN TEMP:  57; 6HR MAX TEMP:  60;

WADENA         PTSUNNY   57  43  58 S9        29.68F
DETROIT LAKES  PTSUNNY   59  41  51 SE12      29.68F
MOORHEAD       CLOUDY    63  41  45 SE15      29.64F
FERGUS FALLS   CLOUDY    59  45  58 SE15      29.66S
MORRIS MN      CLOUDY    57  46  67 SE10      29.68S
STAPLES        CLOUDY    57  39  51 SE6       29.70S
$$
  *****  WEATHER ELSEWHERE ACROSS MINNESOTA  *****

CITY           SKY/WX    TMP DP  RH WIND       PRES   REMARKS
DULUTH         FAIR      55  42  61 E15       29.75R
6HR MIN TEMP:  55; 6HR MAX TEMP:  59;

INTRNTL FALLS  FAIR      64  38  38 SE13G20   29.70R
6HR MIN TEMP:  62; 6HR MAX TEMP:  68;

ELY            FAIR      59  32  36 SE13      29.74S
CLOQUET        FAIR      54  41  62 E13G20    29.74F
WHEATON        CLOUDY    59  45  58 SE13      29.67F
BRAINERD       PTSUNNY   59  41  51 SE10      29.71S
6HR MIN TEMP:  55; 6HR MAX TEMP:  62;

HIBBING        FAIR      58  39  49 SE15G21   29.73F
6HR MIN TEMP:  55; 6HR MAX TEMP:  61;

ALEXANDRIA     CLOUDY    57  43  59 SE10      29.70F
6HR MIN TEMP:  57; 6HR MAX TEMP:  61;

SAINT CLOUD    CLOUDY    58  44  60 E7        29.70S
6HR MIN TEMP:  56; 6HR MAX TEMP:  61;

MINNEAPOLIS    CLOUDY    61  44  53 NE10      29.70R
6HR MIN TEMP:  58; 6HR MAX TEMP:  63;

$$

  *****  WEATHER ACROSS SOUTH DAKOTA  *****

CITY           SKY/WX    TMP DP  RH WIND       PRES   REMARKS
SIOUX FALLS    PTSUNNY   63  47  55 SE10      29.66S
6HR MIN TEMP:  59; 6HR MAX TEMP:  65;

BROOKINGS      PTSUNNY   59  46  62 E13       29.67S
WATERTOWN      CLOUDY    60  44  55 SE13      29.64F
6HR MIN TEMP:  56; 6HR MAX TEMP:  61;

HURON          FAIR      64  44  48 SE20G26   29.59F
6HR MIN TEMP:  59; 6HR MAX TEMP:  66;

SISSETON         N/A     62  45  53 SE18G24   29.63F
ABERDEEN       FAIR      66  41  40 S17G29    29.57F
6HR MIN TEMP:  61; 6HR MAX TEMP:  68;

MITCHELL       FAIR      65  45  48 SE20      29.62F
PIERRE         FAIR      69  40  34 SE24G32   29.48F
6HR MIN TEMP:  61; 6HR MAX TEMP:  70;

MOBRIDGE       FAIR      68  41  37 S22G31    29.45F
RAPID CITY     FAIR      77  49  37 S22G30    29.36F
6HR MIN TEMP:  67; 6HR MAX TEMP:  78;

$$

  *****  SOME WEATHER IN NEARBY STATES *****

CITY           SKY/WX    TMP DP  RH WIND       PRES   REMARKS
GLASGOW MT     FAIR      72  18  13 W24G37    29.27S
6HR MIN TEMP:  72; 6HR MAX TEMP:  82; 6HR PCP: TRACE;

GREAT FALLS MT FAIR      59  15  18 W35G46    29.46R
6HR MIN TEMP:  58; 6HR MAX TEMP:  65;

CHEYENNE WY    FAIR      76  35  22 W26G35    29.62F
6HR MIN TEMP:  73; 6HR MAX TEMP:  77;

SCOTTSBLUFF NE FAIR      79  49  34 SE15G22   29.44F
6HR MIN TEMP:  72; 6HR MAX TEMP:  83;

OMAHA NE       FAIR      69  43  38 CALM      29.67F
6HR MIN TEMP:  63; 6HR MAX TEMP:  69;

DES MOINES IA  PTSUNNY   62  48  60 NE10      29.66S
6HR MIN TEMP:  58; 6HR MAX TEMP:  66;

DAVENPORT IA   FAIR      61  51  70 N12       29.63R
6HR MIN TEMP:  57; 6HR MAX TEMP:  62; 6HR PCP: TRACE;

CHICAGO IL     CLOUDY    60  50  69 N18G28    29.54F
6HR MIN TEMP:  59; 6HR MAX TEMP:  62;

EAU CLAIRE WI  CLOUDY    59  47  64 E12       29.68S
6HR MIN TEMP:  59; 6HR MAX TEMP:  66;

LA CROSSE WI   CLOUDY    60  49  66 NE6       29.68R
6HR MIN TEMP:  58; 6HR MAX TEMP:  62;

$$

  *****  SOME NATIONAL WEATHER *****

CITY           SKY/WX    TMP DP  RH WIND       PRES   REMARKS
LA GUARDIA NY  MOCLDY    65  49  56 SE6       29.79R
6HR MIN TEMP:  65; 6HR MAX TEMP:  69;

RALEIGH NC     CLOUDY    70  67  90 SE7       29.60R
6HR MIN TEMP:  68; 6HR MAX TEMP:  74; 6HR PCP:  0.28;

ATLANTA GA     FAIR      71  55  56 W12       29.51R
6HR MIN TEMP:  71; 6HR MAX TEMP:  79; 6HR PCP: TRACE;

NEW ORLEANS LA FAIR      74  50  42 W12G20    29.68F
6HR MIN TEMP:  74; 6HR MAX TEMP:  78;

OKLAHOMA CITY  FAIR      73  42  32 N10       29.69F
6HR MIN TEMP:  67; 6HR MAX TEMP:  74;

ALBUQUERQUE NM FAIR      89  18   7 W24G33    29.78F
6HR MIN TEMP:  72; 6HR MAX TEMP:  89;

SALT LAKE CITY CLOUDY    83  37  19 S6        29.53F THUNDER
6HR MIN TEMP:  77; 6HR MAX TEMP:  89; 6HR PCP: TRACE;

LOS ANGELES CA PTSUNNY   63  55  75 W16       29.82F
6HR MIN TEMP:  63; 6HR M



USA.gov is the U.S. government's official web portal to all federal, state and local government web resources and services.